SCP
0 0 0 0 0 0 0 0 0 0 0 0 0 0 0 0 0 0 0 0 0 -0
0 0 0 0 0 0 0 0 0 0 0 0 0 0 0 0 0 0 0 0 0 -0
0 0 0 0 0 0 0 0 0 0 0 0 0 0 0 0 0 0 0 0 0 0
0 0 0 0 0 0 0 0 0 0 0 0 0 0 0 0 0 0 0 0 0 0
0 0 0 0 0 0 0 0 0 0 0 0 0 0 0 0 0 0 0 0 0 0
0 0 0 0 0 0 0 0 0 0 0 0 0 0 0 0 0 0 0 0 0 0
0 0 0 0 0 0 0 0 0 0 0 0 0 0 0 0 0 0 0 0 0 0
0 0 0 0 0 0 0 0 0 0 0 0 0 0 0 0 0 0 0 0 0 0
0 0 0 0 0 0 0 0 0 0 0 0 0 0 0 0 0 0 0 0 0 0
0 0 0 0 0 0 0 0 0 0 0 0 0 0 0 0 0 0 0 0 0 0
0 0 0 0 0 0 0 0 0 0 0 0 0 0 0 0 0 0 0 0 0 0
0 0 0 0 0 0 0 0 0 0 0 0 0 0 0 0 0 0 0 0 0 0
0 0 0 0 0 0 0 0 0 0 0 0 0 0 0 0 0 0 0 0 0 0
0 0 -0 0 0 0 0 0 0 0 0 0 0 0 0 0 0 0 0 0 0 0
Wind_Speed_500mb
3 6 9 15 17 17 17 18 25 26 23 23 24 28 29 31 36 37 35 40 25 52
6 8 10 6 3 10 9 9 14 21 23 23 24 27 29 30 32 33 34 46 48 51
15 16 21 19 17 18 20 20 22 23 23 23 26 30 27 23 24 26 26 35 40 38
11 12 15 19 25 26 23 22 28 29 28 29 29 28 30 30 26 24 20 21 27 34
23 25 29 29 29 30 33 34 32 33 36 38 39 38 36 37 35 31 31 26 25 24
27 30 32 34 36 38 41 42 42 44 48 47 49 45 44 44 42 42 38 36 33 34
30 33 34 34 34 32 33 36 38 38 40 42 44 45 54 53 50 49 44 41 45 42
28 29 28 28 30 31 30 31 33 38 40 43 43 43 48 53 55 54 53 46 34 38
31 32 29 24 26 28 29 29 31 31 35 39 39 41 47 55 60 57 56 55 55 49
26 25 26 30 30 32 34 35 35 35 38 42 39 31 36 45 53 55 53 48 50 50
25 25 27 29 32 32 34 38 38 37 40 44 32 31 38 42 41 33 29 35 38 41
28 30 29 32 30 33 34 39 43 38 32 37 36 30 32 37 35 28 19 25 28 31
39 32 30 27 30 40 43 46 50 46 33 33 34 35 33 37 39 37 36 29 29 31
28 33 40 29 25 39 41 45 49 52 54 52 48 46 46 46 45 44 42 36 35 35
Wind_Direction_500mb
2 342 350 341 332 330 341 327 313 317 316 311 308 307 297 289 287 278 266 252 241 262
1 12 3 357 347 308 324 336 339 333 334 329 322 317 310 297 294 289 276 262 259 255
255 237 261 267 270 277 283 286 287 292 291 302 311 316 312 314 315 304 290 276 266 252
240 251 254 264 267 271 278 277 273 277 275 282 288 292 300 298 303 307 317 296 279 272
290 286 288 290 293 291 289 290 285 279 276 279 280 283 286 287 290 292 294 294 295 289
299 301 303 306 306 302 299 297 292 287 282 280 280 283 282 277 274 274 277 277 277 278
313 315 314 312 312 314 313 310 309 307 302 296 288 283 278 277 274 270 268 268 274 269
331 327 324 325 329 332 331 329 327 321 317 312 303 293 286 281 276 273 270 259 260 266
325 327 334 341 344 342 343 344 345 342 338 331 321 313 299 286 280 275 274 274 267 259
344 351 5 4 350 353 351 351 355 352 347 349 348 348 331 329 304 281 271 277 277 275
5 4 10 9 4 1 349 346 344 347 352 350 357 344 350 349 344 325 281 281 282 280
20 21 13 13 14 7 356 354 355 355 350 348 352 340 335 334 336 339 312 290 290 293
26 26 20 28 21 26 28 29 28 22 4 349 347 345 327 325 328 324 324 302 294 298
19 18 17 10 26 34 25 24 26 28 29 25 12 357 344 333 328 325 323 312 306 304
Wind_Speed_850mb
3 6 9 15 17 17 17 18 25 26 23 23 24 28 29 31 36 37 35 40 25 52
6 8 10 6 3 10 9 9 14 21 23 23 24 27 29 30 32 33 34 46 48 51
15 16 21 19 17 18 20 20 22 23 23 23 26 30 27 23 24 26 26 35 40 38
11 12 15 19 25 26 23 22 28 29 28 29 29 28 30 30 26 24 20 21 27 34
23 25 29 29 29 30 33 34 32 33 36 38 39 38 36 37 35 31 31 26 25 24
27 30 32 34 36 38 41 42 42 44 48 47 49 45 44 44 42 42 38 36 33 34
30 33 34 34 34 32 33 36 38 38 40 42 44 45 54 53 50 49 44 41 45 42
28 29 28 28 30 31 30 31 33 38 40 43 43 43 48 53 55 54 53 46 34 38
31 32 29 24 26 28 29 29 31 31 35 39 39 41 47 55 60 57 56 55 55 49
26 25 26 30 30 32 34 35 35 35 38 42 39 31 36 45 53 55 53 48 50 50
25 25 27 29 32 32 34 38 38 37 40 44 32 31 38 42 41 33 29 35 38 41
28 30 29 32 30 33 34 39 43 38 32 37 36 30 32 37 35 28 19 25 28 31
39 32 30 27 30 40 43 46 50 46 33 33 34 35 33 37 39 37 36 29 29 31
28 33 40 29 25 39 41 45 49 52 54 52 48 46 46 46 45 44 42 36 35 35
Wind_Direction_850mb
2 342 350 341 332 330 341 327 313 317 316 311 308 307 297 289 287 278 266 252 241 262
1 12 3 357 347 308 324 336 339 333 334 329 322 317 310 297 294 289 276 262 259 255
255 237 261 267 270 277 283 286 287 292 291 302 311 316 312 314 315 304 290 276 266 252
240 251 254 264 267 271 278 277 273 277 275 282 288 292 300 298 303 307 317 296 279 272
290 286 288 290 293 291 289 290 285 279 276 279 280 283 286 287 290 292 294 294 295 289
299 301 303 306 306 302 299 297 292 287 282 280 280 283 282 277 274 274 277 277 277 278
313 315 314 312 312 314 313 310 309 307 302 296 288 283 278 277 274 270 268 268 274 269
331 327 324 325 329 332 331 329 327 321 317 312 303 293 286 281 276 273 270 259 260 266
325 327 334 341 344 342 343 344 345 342 338 331 321 313 299 286 280 275 274 274 267 259
344 351 5 4 350 353 351 351 355 352 347 349 348 348 331 329 304 281 271 277 277 275
5 4 10 9 4 1 349 346 344 347 352 350 357 344 350 349 344 325 281 281 282 280
20 21 13 13 14 7 356 354 355 355 350 348 352 340 335 334 336 339 312 290 290 293
26 26 20 28 21 26 28 29 28 22 4 349 347 345 327 325 328 324 324 302 294 298
19 18 17 10 26 34 25 24 26 28 29 25 12 357 344 333 328 325 323 312 306 304